Amelia, Virginia, United States
Lat: 37.37N, Lon: 77.92W
Wx Zone: VAZ068
Local Info
Past Weather Observations for Wednesday, July 29, 2015

NOTE: This archive is for the closest National Weather Service station to Amelia. Information may differ from the station used for current weather conditions.

Click here for Long-term Archive

Time Weather Temperature Dewpoint Humidity Pressure Winds Precip Visibility
23:55
Obscured
Fog And Mist
75°F / 24°C 75°F / 24°C 100% 30.01 in
(1016 mb)
Calm - 3/4SM
23:35
Mostly Cloudy
Fog
75°F / 24°C 75°F / 24°C 100% 30.01 in
(1016 mb)
Calm - 1/2SM
23:15
Overcast
Fog And Mist
75°F / 24°C 75°F / 24°C 100% 30.04 in
(1017 mb)
Calm - 1SM
22:55
Overcast
Fog
75°F / 24°C 75°F / 24°C 100% 30.01 in
(1016 mb)
Calm - 1/4SM
22:35
Partly Cloudy
Fog And Mist
75°F / 24°C 75°F / 24°C 100% 30.01 in
(1016 mb)
Calm - 1 1/4SM
22:15
Clear
Fog And Mist
77°F / 25°C 77°F / 25°C 100% 30.01 in
(1016 mb)
Calm - 4SM
21:55
Partly Cloudy
Fog And Mist
75°F / 24°C 75°F / 24°C 100% 30.01 in
(1016 mb)
Calm - 3SM
21:35
Overcast
Fog And Mist
77°F / 25°C 77°F / 25°C 100% 30.04 in
(1017 mb)
Calm - 2 1/2SM
21:15
Mostly Cloudy
Fog And Mist
77°F / 25°C 77°F / 25°C 100% 30.04 in
(1017 mb)
Calm - 5SM
20:55
Partly Cloudy
Fog And Mist
77°F / 25°C 77°F / 25°C 100% 30.04 in
(1017 mb)
Calm - 2 1/2SM
20:35
Mostly Cloudy
Fog And Mist
77°F / 25°C 77°F / 25°C 100% 30.01 in
(1016 mb)
Calm - 2SM
20:15
Mostly Cloudy
Fog And Mist
77°F / 25°C 77°F / 25°C 100% 30.01 in
(1016 mb)
Calm - 4SM
19:55
Clear
79°F / 26°C 79°F / 26°C 100% 30.01 in
(1016 mb)
Calm - 7SM
19:35
Clear
79°F / 26°C 79°F / 26°C 100% 30.01 in
(1016 mb)
Calm - 7SM
19:15
Clear
Fog And Mist
79°F / 26°C 79°F / 26°C 100% 29.98 in
(1015 mb)
Calm - 4SM
18:55
Clear
79°F / 26°C 79°F / 26°C 100% 29.98 in
(1015 mb)
Calm - 7SM
18:35
Clear
79°F / 26°C 79°F / 26°C 100% 29.98 in
(1015 mb)
Calm - 10SM
18:15
Clear
79°F / 26°C 79°F / 26°C 100% 29.98 in
(1015 mb)
Calm - 7SM
17:55
Partly Cloudy
81°F / 27°C 81°F / 27°C 100% 29.98 in
(1015 mb)
Calm - 7SM
17:35
Partly Cloudy
79°F / 26°C 79°F / 26°C 100% 29.98 in
(1015 mb)
Calm - 10SM
17:15
Partly Cloudy
81°F / 27°C 79°F / 26°C 94% 30.01 in
(1016 mb)
Calm - 10SM
16:55
Mostly Cloudy
Light Rain
79°F / 26°C 79°F / 26°C 100% 30.01 in
(1016 mb)
Calm - 10SM
16:35
Mostly Cloudy
79°F / 26°C 79°F / 26°C 100% 29.98 in
(1015 mb)
Calm - 10SM
16:15
Clear
77°F / 25°C 77°F / 25°C 100% 29.98 in
(1015 mb)
Calm - 10SM
15:55
Clear
77°F / 25°C 77°F / 25°C 100% 30.01 in
(1016 mb)
Calm - 7SM
15:35
Mostly Cloudy
77°F / 25°C 77°F / 25°C 100% 30.01 in
(1016 mb)
Calm - 7SM
15:15
Mostly Cloudy
Light Rain
75°F / 24°C 75°F / 24°C 100% 30.01 in
(1016 mb)
Calm - 10SM
14:55
Mostly Cloudy
Light Rain
75°F / 24°C 75°F / 24°C 100% 30.01 in
(1016 mb)
Calm - 10SM
14:35
Partly Cloudy
Light Rain
75°F / 24°C 75°F / 24°C 100% 30.01 in
(1016 mb)
Calm - 5SM
14:15
Overcast
Light Rain
75°F / 24°C 75°F / 24°C 100% 30.04 in
(1017 mb)
Calm - 5SM
13:55
Overcast
Rain
75°F / 24°C 75°F / 24°C 100% 30.04 in
(1017 mb)
Calm - 2 1/2SM
13:35
Overcast
Heavy Rain
73°F / 23°C 73°F / 23°C 100% 30.01 in
(1016 mb)
SSE 4.6 mph
(SSE 7 kph)
- 1SM
13:15
Overcast
75°F / 24°C 75°F / 24°C 100% 30.04 in
(1017 mb)
SSE 3.5 mph
(SSE 6 kph)
- 1/2SM
12:55
Overcast
Thunder Storms
75°F / 24°C 75°F / 24°C 100% 30.04 in
(1017 mb)
SW 11.5 mph
(SW 19 kph)
- 1/4SM
12:35
Overcast
82°F / 28°C 81°F / 27°C 94% 30.01 in
(1016 mb)
SW 10.4 mph
(SW 17 kph)
- 10SM
12:15
Overcast
Light Rain
82°F / 28°C 82°F / 28°C 100% 30.01 in
(1016 mb)
NE 4.6 mph
(NE 7 kph)
- 10SM
11:55
Overcast
Rain
82°F / 28°C 81°F / 27°C 94% 30.01 in
(1016 mb)
NNW 4.6 mph
(NNW 7 kph)
- 5SM
11:35
Overcast
Rain
81°F / 27°C 81°F / 27°C 100% 30.04 in
(1017 mb)
NNW 5.8 mph
(NNW 9 kph)
- 2SM
11:15
Overcast
84°F / 29°C 79°F / 26°C 84% 30.04 in
(1017 mb)
SSE 3.5 mph
(SSE 6 kph)
- 10SM
10:55
Mostly Cloudy
88°F / 31°C 79°F / 26°C 75% 30.04 in
(1017 mb)
SSE 5.8 mph
(SSE 9 kph)
- 10SM
10:35
Overcast
86°F / 30°C 79°F / 26°C 79% 30.04 in
(1017 mb)
SE 4.6 mph
(SE 7 kph)
- 10SM
10:15
Mostly Cloudy
86°F / 30°C 79°F / 26°C 79% 30.04 in
(1017 mb)
ESE 5.8 mph
(ESE 9 kph)
- 10SM
09:55
Partly Cloudy
86°F / 30°C 79°F / 26°C 79% 30.04 in
(1017 mb)
Calm - 10SM
09:35
Clear
86°F / 30°C 79°F / 26°C 79% 30.01 in
(1016 mb)
SSE 3.5 mph
(SSE 6 kph)
- 10SM
09:15
Partly Cloudy
84°F / 29°C 79°F / 26°C 84% 30.04 in
(1017 mb)
ESE 3.5 mph
(ESE 6 kph)
- 10SM
08:55
Partly Cloudy
84°F / 29°C 77°F / 25°C 79% 30.04 in
(1017 mb)
Calm - 10SM
08:35
Clear
82°F / 28°C 77°F / 25°C 84% 30.04 in
(1017 mb)
Calm - 10SM
08:15
Clear
82°F / 28°C 77°F / 25°C 84% 30.04 in
(1017 mb)
Calm - 10SM
07:55
Clear
81°F / 27°C 77°F / 25°C 89% 30.04 in
(1017 mb)
Calm - 10SM
07:35
Clear
79°F / 26°C 77°F / 25°C 94% 30.04 in
(1017 mb)
Calm - 10SM
07:15
Clear
77°F / 25°C 77°F / 25°C 100% 30.04 in
(1017 mb)
Calm - 10SM
06:55
Clear
75°F / 24°C 75°F / 24°C 100% 30.04 in
(1017 mb)
Calm - 10SM
06:35
Clear
73°F / 23°C 73°F / 23°C 100% 30.04 in
(1017 mb)
Calm - 10SM
06:15
Clear
73°F / 23°C 73°F / 23°C 100% 30.04 in
(1017 mb)
Calm - 7SM
05:55
Clear
Fog And Mist
72°F / 22°C 72°F / 22°C 100% 30.04 in
(1017 mb)
Calm - 4SM
05:35
Clear
Fog And Mist
72°F / 22°C 72°F / 22°C 100% 30.04 in
(1017 mb)
Calm - 5SM
05:15
Clear
70°F / 21°C 70°F / 21°C 100% 30.01 in
(1016 mb)
Calm - 7SM
04:55
Clear
72°F / 22°C 72°F / 22°C 100% 30.01 in
(1016 mb)
Calm - 7SM
04:35
Clear
70°F / 21°C 70°F / 21°C 100% 30.01 in
(1016 mb)
Calm - 10SM
04:15
Partly Cloudy
72°F / 22°C 72°F / 22°C 100% 30.01 in
(1016 mb)
Calm - 10SM
03:55
Overcast
72°F / 22°C 72°F / 22°C 100% 30.01 in
(1016 mb)
Calm - 10SM
03:35
Mostly Cloudy
Fog And Mist
72°F / 22°C 72°F / 22°C 100% 30.01 in
(1016 mb)
Calm - 5SM
03:15
Partly Cloudy
72°F / 22°C 72°F / 22°C 100% 30.01 in
(1016 mb)
Calm - 10SM
02:55
Partly Cloudy
72°F / 22°C 72°F / 22°C 100% 30.01 in
(1016 mb)
Calm - 10SM
02:35
Partly Cloudy
73°F / 23°C 73°F / 23°C 100% 30.01 in
(1016 mb)
Calm - 10SM
02:15
Partly Cloudy
73°F / 23°C 73°F / 23°C 100% 30.04 in
(1017 mb)
Calm - 10SM
01:55
Mostly Cloudy
73°F / 23°C 73°F / 23°C 100% 30.04 in
(1017 mb)
Calm - 10SM
01:35
Mostly Cloudy
73°F / 23°C 73°F / 23°C 100% 30.04 in
(1017 mb)
Calm - 10SM
01:15
Partly Cloudy
73°F / 23°C 73°F / 23°C 100% 30.04 in
(1017 mb)
Calm - 10SM
00:55
Partly Cloudy
75°F / 24°C 75°F / 24°C 100% 30.04 in
(1017 mb)
Calm - 10SM
00:35
Mostly Cloudy
75°F / 24°C 75°F / 24°C 100% 30.04 in
(1017 mb)
Calm - 10SM
00:15
Partly Cloudy
75°F / 24°C 75°F / 24°C 100% 30.04 in
(1017 mb)
Calm - 10SM
Time Weather Temperature Dewpoint Humidity Pressure Winds Precip Visibility


Weather for websites

WeatherForYou.com, LLC is not responsible for any damages or problems caused by this service. Current weather conditions are obtained from the closest station including government and personal stations which may have varying degrees of accuracy. Weather forecasts are derived from the NOAA NDFD. Like all things, this site belongs to Jesus Christ... He just trusts us to maintain it. If you have any questions or comments email webmaster@weatherforyou.com

Copyright © 2015, WeatherForYou.com LLC. All rights reserved.